Hourly Data Report for August 10, 2022

CARBERRY CS
MANITOBA
Current Station Operator: ECCC - MSC

49°54'20.900" N
99°21'26.800" W
383.50 m
5010547
71170
WZE

Download Data

Hourly Data (August 2022)
Hourly Data Report for August 10, 2022
TIME
LST
Temp Definition
°C
Dew Point Definition
°C
Rel Hum Definition
%
Precip. Amount Definition
mm

Wind Dir Definition
10's deg

Wind Spd Definition
km/h
Visibility Definition
km
Stn Press Definition
kPa
Hmdx Definition


Wind Chill Definition


Weather Definition


00:00 12.2 10.9 92 0.0 28 11   97.56     LegendNANA
01:00 12.5 11.0 91 0.0 28 12   97.58     LegendNANA
02:00 11.5 10.5 94 0.0 29 11   97.62     LegendNANA
03:00 10.6 10.0 96 0.0 29 9   97.69     LegendNANA
04:00 11.0 10.6 97 0.0 32 9   97.75     LegendNANA
05:00 9.8 9.5 97 0.0 32 7   97.79     LegendNANA
06:00 10.2 9.3 94 0.0 30 6   97.87     LegendNANA
07:00 13.2 11.6 90 0.0 32 6   97.95     LegendNANA
08:00 16.1 12.6 80 0.0 36 8   97.98     LegendNANA
09:00 18.4 13.5 73 0.0 3 10   98.00     LegendNANA
10:00 19.7 11.9 61 0.0 1 9   98.00     LegendNANA
11:00 20.7 10.9 53 0.0 3 8   98.04     LegendNANA
12:00 21.1 11.3 53 0.0 36 8   98.04     LegendNANA
13:00 20.8 11.9 57 0.0 5 7   98.03     LegendNANA
14:00 21.4 11.1 52 0.0 3 7   98.01     LegendNANA
15:00 22.0 11.4 51 0.0 2 10   97.96     LegendNANA
16:00 20.9 12.5 59 0.0 3 10   97.95     LegendNANA
17:00 21.1 12.6 58 0.0 5 10   97.95     LegendNANA
18:00 19.2 13.9 71 0.0 6 13   97.93     LegendNANA
19:00 17.7 13.7 77 0.0 7 10   97.92     LegendNANA
20:00 16.1 13.6 86 0.0 8 7   97.95     LegendNANA
21:00 14.1 12.6 91 0.0 12 6   97.99     LegendNANA
22:00 13.9 12.5 91 0.0 11 6   97.99     LegendNANA
23:00 12.1 11.3 95 0.0 8 6   97.97     LegendNANA

Notes on Data Quality.

Legend

  • E = Estimated
  • M = Missing
  • NA = Not Available*
  • [empty] = Indicates an unobserved value
Date modified: